Погода в Ставках

Украина / Житомирская область     50°24′48″N   29°13′27″E
темп.,
°C
ветер,
м/с
пор.,
м/с
влажн.,
%
обл.,
%
осадки,
мм/ч
давл.,
гПа
погр.,
м
12 мая, ср
ср1200:00+12в38941 0.0 1018170
03:00+10в399846 0.0 1017325
06:00+9вюв511910 0.0 1018399
09:00+11вюв69653 0.0 1018994
12:00+11в6864100 0.0 10181371
15:00+12в576497 0.0 10171239
18:00+12в356695 0.0 1015847
21:00+9всв2383100 0.1 101449
13 мая, чт
чт1300:00+6вюв2393100 0.0 101338
03:00+6ююв2295100 0.0 101234
06:00+6юв2594100 0.0 1011126
09:00+10ююв5676100 0.0 1010598
12:00+14ююв6857100 0.0 10091625
15:00+13ю796597 0.1 10091224
18:00+12ююв61174100 0.0 1009715
21:00+11юв61280100 0.0 1008537
14 мая, пт
пт1400:00+11ююв61391100 0.2 1008658
03:00+10юв4119558 0.8 1007411
06:00+10ююв41192100 0.1 1007393
09:00+13ююв577917 0.2 1007467
12:00+17ююв4567100 0.0 10071102
15:00+18ю4466100 0.4 10071077
18:00+17ююз447288 1.1 1007759
21:00+13зюз379393 3.4 1008199
15 мая, сб
сб1500:00+12зюз3698100 0.3 1008229
03:00+12з4896100 1.1 1009394
06:00+10з499393 0.4 1010357
09:00+13з597647 0.4 1011670
12:00+15зсз576489 0.0 10121047
15:00+18зсз565296 0.0 10111770
18:00+18зюз34521 0.0 10111196
21:00+13ю11690 0.0 101210
16 мая, вс
вс1600:00+11юв22760 0.0 101215
03:00+10всв33795 0.0 101224
06:00+9вюв358297 0.0 101369
09:00+16в4763100 0.0 1012439
12:00+19в6752100 0.0 10121060
15:00+21в6750100 0.0 10111419
18:00+20в5861100 0.0 10091344
21:00+16всв51274100 0.0 1008375